Location: Montr�al
(45.5000°N, 73.5830°W)
Time: 21:26:08
(UTC-04:00)

ISS - Visible Passes

Search period start: 20 April 2015 00:00
Search period end: 30 April 2015 00:00
Orbit: 395 x 403 km, 51.6° (Epoch: 20 April)

Date Brightness Start Highest point End Pass type
(mag) Time Alt. Az. Time Alt. Az. Time Alt. Az.
20 Apr -1.6 21:10:11 10° W 21:12:55 24° SW 21:14:31 17° S visible
21 Apr -2.5 20:15:54 10° WNW 20:19:02 44° SW 20:22:08 10° SE visible
22 Apr -0.6 20:59:28 10° WSW 21:00:55 12° SW 21:02:16 10° SSW visible
